Location: Prairie Dale
(45.6972°N, 104.5033°W)
Time: 16:32:17
(UTC+00:00)

ESTCUBE 1 - Pass Details

Date: 03 July 2022
Orbit: 646 x 657 km, 97.9° (Epoch: 07 August)

Event Time Altitude Azimuth Distance (km) Brightness Sun altitude
Exits shadow 04:33:39 21° 135° (SE) 1,465 ? -13.5°
Maximum altitude 04:36:23 47° 71° (ENE) 864 ? -13.8°
Drops below altitude 10° 04:40:41 10° 358° (N) 2,061 ? -14.2°
Sets 04:42:57 0° 353° (N) 2,978 ? -14.4°
